FW8870 Weather Reports


Display with metric or nautical units.
time (UTC)temp
F
wind
direction
speed
MPH
gust
MPH
rain 1hr
in
rain 24hr
in
rain mn
in
humidity
%
barometer
mb
20260904112825 50 320 0.0 0.0 0.00 0.00 0.00 99 1013.5
20260904112321 50 319 0.0 0.0 0.00 0.00 0.00 99 1013.2
20260904111816 50 321 0.0 0.0 0.00 0.00 0.00 99 1013.3
20260904111312 50 322 0.0 0.0 0.00 0.00 0.00 99 1013.4
20260904110808 50 322 0.0 0.0 0.00 0.00 0.00 99 1013.2
20260904110306 50 331 0.0 0.0 0.00 0.00 0.00 99 1013.1
20260904105802 50 329 0.0 0.0 0.00 0.00 0.00 99 1013.2
20260904105256 50 276 0.0 1.0 0.00 0.00 0.00 99 1013.4
20260904104751 50 318 0.0 0.0 0.00 0.00 0.00 99 1012.9
20260904104247 50 333 0.0 0.0 0.00 0.00 0.00 99 1013.0
20260904103744 50 325 0.0 0.0 0.00 0.00 0.00 99 1013.2
20260904103238 50 332 0.0 0.0 0.00 0.00 0.00 99 1013.4
20260904102734 50 344 0.0 0.0 0.00 0.00 0.00 99 1013.3
20260904102229 50 3 0.0 0.0 0.00 0.00 0.00 99 1013.3
20260904101725 50 318 0.0 0.0 0.00 0.00 0.00 99 1013.4
20260904101221 50 335 0.0 0.0 0.00 0.00 0.00 99 1013.2
20260904100717 50 327 0.0 0.0 0.00 0.00 0.00 99 1013.2
20260904100213 50 327 0.0 0.0 0.00 0.00 0.00 99 1013.1
20260904095712 50 327 0.0 0.0 0.00 0.00 0.00 99 1013.2
20260904095206 50 332 0.0 0.0 0.00 0.00 0.00 99 1013.1
20260904094702 50 345 0.0 0.0 0.00 0.00 0.00 99 1013.3
20260904094156 50 293 0.0 0.0 0.00 0.00 0.00 99 1013.3
20260904093654 50 63 2.0 3.0 0.00 0.00 0.00 99 1013.3
20260904093153 50 336 0.0 0.0 0.00 0.00 0.00 99 1013.0
20260904092649 49 211 3.0 3.0 0.00 0.00 0.00 99 1013.0
20260904092145 49 338 0.0 0.0 0.00 0.00 0.00 99 1013.0
20260904091641 50 338 0.0 0.0 0.00 0.00 0.00 99 1013.2
20260904091140 50 291 0.0 0.0 0.00 0.00 0.00 99 1013.3
20260904090636 49 330 0.0 0.0 0.00 0.00 0.00 99 1013.3
20260904090131 49 330 0.0 0.0 0.00 0.00 0.00 99 1013.2
20260904085632 49 330 0.0 0.0 0.00 0.00 0.00 99 1013.1
20260904085126 49 330 0.0 0.0 0.00 0.00 0.00 99 1013.1
20260904084621 50 330 0.0 0.0 0.00 0.00 0.00 99 1013.0
20260904084118 50 317 0.0 0.0 0.00 0.00 0.00 99 1013.2
20260904083614 50 289 0.0 0.0 0.00 0.00 0.00 99 1012.9
20260904083109 50 347 0.0 0.0 0.00 0.00 0.00 99 1012.9
20260904082604 50 323 0.0 0.0 0.00 0.00 0.00 99 1013.0
20260904082100 51 322 0.0 0.0 0.00 0.00 0.00 98 1013.2
20260904081555 51 337 0.0 0.0 0.00 0.00 0.00 98 1013.2
20260904081050 51 346 0.0 0.0 0.00 0.00 0.00 98 1013.1
20260904080546 52 338 0.0 0.0 0.00 0.00 0.00 97 1013.2
20260904080042 52 341 0.0 0.0 0.00 0.00 0.00 97 1013.3
20260904075538 52 277 0.0 0.0 0.00 0.00 0.00 97 1013.0
20260904075032 52 349 0.0 0.0 0.00 0.00 0.00 97 1013.3
20260904074531 52 223 2.0 2.0 0.00 0.00 0.00 99 1013.2
20260904074026 51 327 0.0 0.0 0.00 0.00 0.00 99 1013.3
20260904073521 51 20 0.0 1.0 0.00 0.00 0.00 99 1012.9
20260904073018 50 347 0.0 0.0 0.00 0.00 0.00 99 1013.1
20260904072513 51 319 0.0 0.0 0.00 0.00 0.00 99 1013.0
20260904072008 50 308 0.0 0.0 0.00 0.00 0.00 99 1013.0
20260904071503 50 308 0.0 0.0 0.00 0.00 0.00 99 1013.0
20260904070958 50 308 0.0 0.0 0.00 0.00 0.00 99 1012.7
20260904070456 51 308 0.0 0.0 0.00 0.00 0.00 99 1012.9
20260904065951 51 309 0.0 0.0 0.00 0.00 0.00 99 1012.9
20260904065447 51 308 0.0 0.0 0.00 0.00 0.00 99 1012.9
20260904064942 51 309 0.0 0.0 0.00 0.00 0.00 99 1012.6
20260904064439 52 309 0.0 0.0 0.00 0.00 0.00 99 1012.6
20260904063939 52 309 0.0 0.0 0.00 0.00 0.00 99 1012.7
20260904063436 52 309 0.0 0.0 0.00 0.00 0.00 99 1012.9
20260904062930 52 309 0.0 0.0 0.00 0.00 0.00 98 1012.8
20260904062421 52 308 0.0 0.0 0.00 0.00 0.00 99 1012.7
20260904061917 52 316 0.0 0.0 0.00 0.00 0.00 99 1012.7
20260904061413 52 317 0.0 0.0 0.00 0.00 0.00 99 1012.6
20260904060909 52 317 0.0 0.0 0.00 0.00 0.00 99 1013.0
20260904060405 52 317 0.0 0.0 0.00 0.00 0.00 99 1012.9
20260904055900 52 317 0.0 0.0 0.00 0.00 0.00 99 1012.9
20260904055355 51 317 0.0 0.0 0.00 0.00 0.00 99 1012.7
20260904054851 51 317 0.0 0.0 0.00 0.00 0.00 99 1012.9
20260904054346 51 317 0.0 0.0 0.00 0.00 0.00 99 1012.8
20260904053842 51 317 0.0 0.0 0.00 0.00 0.00 99 1012.7
20260904053341 51 317 0.0 0.0 0.00 0.00 0.00 99 1012.6
20260904052837 51 317 0.0 0.0 0.00 0.00 0.00 99 1012.7
20260904052333 51 317 0.0 0.0 0.00 0.00 0.00 99 1012.7
20260904051829 50 317 0.0 0.0 0.00 0.00 0.00 99 1012.8
20260904051325 50 317 0.0 0.0 0.00 0.00 0.00 99 1012.8
20260904050820 50 317 0.0 0.0 0.00 0.00 0.00 99 1012.8
20260904050316 50 317 0.0 0.0 0.00 0.00 0.00 99 1012.7
20260904045816 50 317 0.0 0.0 0.00 0.00 0.00 99 1012.8
20260904045311 50 317 0.0 0.0 0.00 0.00 0.00 99 1012.7
20260904044806 50 317 0.0 0.0 0.00 0.00 0.00 99 1012.4
20260904044303 51 317 0.0 0.0 0.00 0.00 0.00 99 1012.3
20260904043758 51 317 0.0 0.0 0.00 0.00 0.00 99 1012.4
20260904043254 51 317 0.0 0.0 0.00 0.00 0.00 99 1012.5
20260904042749 51 318 0.0 0.0 0.00 0.00 0.00 99 1012.4
20260904042246 51 318 0.0 0.0 0.00 0.00 0.00 98 1012.5
20260904041745 52 318 0.0 0.0 0.00 0.00 0.00 98 1012.4
20260904041242 52 318 0.0 0.0 0.00 0.00 0.00 98 1012.3
20260904040737 52 318 0.0 0.0 0.00 0.00 0.00 97 1012.3
20260904040232 52 318 0.0 0.0 0.00 0.00 0.00 96 1012.5
20260904035729 53 318 0.0 0.0 0.00 0.00 0.00 96 1012.5
20260904035224 53 318 0.0 0.0 0.00 0.00 0.00 95 1012.6
20260904034722 54 317 0.0 0.0 0.00 0.00 0.00 94 1012.4
20260904034218 55 316 0.0 0.0 0.00 0.00 0.00 92 1012.4
20260904033714 55 323 0.0 0.0 0.00 0.00 0.00 89 1012.4
20260904033211 55 323 0.0 0.0 0.00 0.00 0.00 89 1012.1
20260904032707 55 327 0.0 0.0 0.00 0.00 0.00 90 1012.1
20260904032206 56 327 0.0 0.0 0.00 0.00 0.00 88 1012.3
20260904031706 57 326 0.0 0.0 0.00 0.00 0.00 87 1012.2
20260904031201 57 325 0.0 0.0 0.00 0.00 0.00 87 1012.2
20260904030657 57 325 0.0 0.0 0.00 0.00 0.00 86 1012.2
20260904030152 57 330 0.0 0.0 0.00 0.00 0.00 86 1012.0
20260904025648 57 331 0.0 0.0 0.00 0.00 0.00 85 1012.1
20260904025143 58 331 0.0 0.0 0.00 0.00 0.00 84 1012.1
20260904024638 58 331 0.0 0.0 0.00 0.00 0.00 82 1011.9
20260904024134 59 331 0.0 0.0 0.00 0.00 0.00 83 1012.1
20260904023630 59 335 0.0 0.0 0.00 0.00 0.00 82 1012.1
20260904023126 60 336 0.0 0.0 0.00 0.00 0.00 83 1011.8
20260904022625 60 336 0.0 0.0 0.00 0.00 0.00 83 1011.8
20260904022122 60 335 0.0 0.0 0.00 0.00 0.00 83 1011.7
20260904021618 60 334 0.0 0.0 0.00 0.00 0.00 82 1011.5
20260904021113 60 334 0.0 0.0 0.00 0.00 0.00 80 1011.5
20260904020609 60 334 0.0 0.0 0.00 0.00 0.00 80 1011.4
20260904015557 61 330 0.0 0.0 0.00 0.00 0.00 81 1011.6
20260904015056 61 325 0.0 0.0 0.00 0.00 0.00 80 1011.4
20260904014550 61 324 0.0 1.0 0.00 0.00 0.00 82 1011.4
20260904014046 61 325 0.0 0.0 0.00 0.00 0.00 81 1011.3
20260904013542 61 336 0.0 0.0 0.00 0.00 0.00 79 1011.3
20260904013039 62 328 0.0 0.0 0.00 0.00 0.00 78 1011.1
20260904012539 62 320 0.0 0.0 0.00 0.00 0.00 78 1011.3
20260904012038 61 320 0.0 0.0 0.00 0.00 0.00 77 1011.2
20260904011532 61 320 0.0 0.0 0.00 0.00 0.00 78 1011.0
20260904011027 61 320 0.0 0.0 0.00 0.00 0.00 79 1011.2
20260904010524 61 319 0.0 0.0 0.00 0.00 0.00 81 1011.2
20260904010020 62 343 0.0 0.0 0.00 0.00 0.00 78 1010.8
20260904005519 61 334 0.0 0.0 0.00 0.00 0.00 77 1010.8
20260904005015 61 334 0.0 0.0 0.00 0.00 0.00 77 1011.0
20260904004511 62 334 0.0 0.0 0.00 0.00 0.00 79 1011.2
20260904004011 62 334 0.0 0.0 0.00 0.00 0.00 75 1011.2
20260904003506 62 320 0.0 0.0 0.00 0.00 0.00 72 1010.8
20260904003002 62 347 0.0 0.0 0.00 0.00 0.00 73 1010.8
20260904002458 63 197 1.0 1.0 0.00 0.00 0.00 72 1011.2
20260904001956 64 321 0.0 0.0 0.00 0.00 0.00 67 1011.1
20260904001453 65 316 0.0 0.0 0.00 0.00 0.00 59 1011.0
20260904000947 65 316 0.0 0.0 0.00 0.00 0.00 66 1010.8
20260904000447 64 5 2.0 2.0 0.00 0.00 0.00 60 1011.0
20260903235942 64 345 0.0 0.0 0.00 0.00 0.00 64 1011.0
20260903235438 65 329 0.0 0.0 0.00 0.00 0.00 65 1011.0
20260903234932 65 337 0.0 0.0 0.00 0.00 0.00 61 1010.8
20260903234428 66 240 1.0 1.0 0.00 0.00 0.00 61 1011.1
20260903233924 66 203 3.0 5.0 0.00 0.00 0.00 58 1011.0
20260903233420 67 165 5.0 6.0 0.00 0.00 0.00 58 1011.0
20260903232920 67 140 4.0 5.0 0.00 0.00 0.00 58 1011.1
20260903232415 66 198 3.0 3.0 0.00 0.00 0.00 60 1010.8
20260903231915 66 205 2.0 3.0 0.00 0.00 0.00 61 1010.8
20260903231409 67 298 1.0 2.0 0.00 0.00 0.00 60 1011.2
20260903230904 67 348 1.0 1.0 0.00 0.00 0.00 60 1011.0
20260903230400 67 210 6.0 7.0 0.00 0.00 0.00 59 1011.1
20260903225856 67 69 3.0 3.0 0.00 0.00 0.00 57 1011.4
20260903225352 67 342 2.0 2.0 0.00 0.00 0.00 57 1011.2
20260903224848 67 218 5.0 5.0 0.00 0.00 0.00 57 1011.3
20260903224344 67 191 5.0 8.0 0.00 0.00 0.00 58 1011.6
20260903223839 67 163 3.0 3.0 0.00 0.00 0.00 60 1011.3
20260903223338 67 193 3.0 3.0 0.00 0.00 0.00 56 1011.5
20260903222833 67 175 3.0 3.0 0.00 0.00 0.00 59 1011.5
20260903222332 66 186 1.0 2.0 0.00 0.00 0.00 64 1011.6
20260903221827 65 176 2.0 2.0 0.00 0.00 0.00 61 1011.6
20260903221326 65 249 1.0 1.0 0.00 0.00 0.00 65 1011.4
20260903220824 65 322 0.0 0.0 0.00 0.00 0.00 65 1011.7
20260903220319 65 37 2.0 2.0 0.00 0.00 0.00 63 1011.8
20260903215817 65 266 1.0 3.0 0.00 0.00 0.00 62 1011.7
20260903215314 65 146 3.0 3.0 0.00 0.00 0.00 64 1011.9
20260903214811 65 344 1.0 1.0 0.00 0.00 0.00 65 1011.7
20260903214308 65 286 1.0 1.0 0.00 0.00 0.00 63 1012.0
20260903213802 65 166 4.0 5.0 0.00 0.00 0.00 64 1011.9
20260903213258 65 257 1.0 1.0 0.00 0.00 0.00 66 1012.3
20260903212754 64 69 3.0 3.0 0.00 0.00 0.00 64 1012.1
20260903212250 65 140 2.0 3.0 0.00 0.00 0.00 63 1012.1
20260903211749 65 212 1.0 2.0 0.00 0.00 0.00 65 1011.9
20260903211246 65 139 4.0 5.0 0.00 0.00 0.00 65 1012.0
20260903210741 64 156 1.0 2.0 0.00 0.00 0.00 65 1011.9
20260903210236 64 200 4.0 5.0 0.00 0.00 0.00 65 1012.0
20260903205730 64 224 3.0 3.0 0.00 0.00 0.00 66 1012.1
20260903205229 64 180 4.0 5.0 0.00 0.00 0.00 68 1012.1
20260903204725 64 106 3.0 3.0 0.00 0.00 0.00 64 1011.8
20260903204221 64 133 3.0 3.0 0.00 0.00 0.00 66 1012.0
20260903203717 64 169 4.0 6.0 0.00 0.00 0.00 67 1011.9
20260903203212 64 279 1.0 1.0 0.00 0.00 0.00 67 1011.8
20260903202706 64 152 3.0 3.0 0.00 0.00 0.00 64 1011.9
20260903202202 64 355 1.0 2.0 0.00 0.00 0.00 65 1012.0
20260903201701 64 208 2.0 3.0 0.00 0.00 0.00 66 1011.8
20260903201156 64 54 0.0 1.0 0.00 0.00 0.00 66 1011.9
20260903200650 64 352 0.0 0.0 0.00 0.00 0.00 64 1012.0
20260903200146 64 77 2.0 2.0 0.00 0.00 0.00 68 1011.9
20260903195642 64 260 0.0 1.0 0.00 0.00 0.00 68 1012.0
20260903195138 64 34 1.0 1.0 0.00 0.00 0.00 68 1011.8
20260903194638 64 300 0.0 0.0 0.00 0.00 0.00 68 1011.9
20260903194138 64 306 0.0 0.0 0.00 0.00 0.00 67 1011.8
20260903193633 64 291 0.0 0.0 0.00 0.00 0.00 66 1011.6
20260903193129 65 225 3.0 3.0 0.00 0.00 0.00 68 1011.6
20260903192626 65 316 0.0 0.0 0.00 0.00 0.00 67 1011.6
20260903192120 64 351 0.0 0.0 0.00 0.00 0.00 70 1011.6
20260903191616 64 210 2.0 2.0 0.00 0.00 0.00 70 1011.5
20260903191111 64 310 0.0 0.0 0.00 0.00 0.00 72 1011.6
20260903190610 63 327 0.0 1.0 0.00 0.00 0.00 70 1011.7
20260903190105 63 34 2.0 2.0 0.00 0.00 0.00 70 1011.7
20260903185600 63 339 0.0 0.0 0.00 0.00 0.00 70 1011.9
20260903185056 63 190 2.0 3.0 0.00 0.00 0.00 74 1011.8
20260903184552 63 291 1.0 1.0 0.00 0.00 0.00 73 1011.8
20260903184047 63 302 0.0 0.0 0.00 0.00 0.00 72 1011.7
20260903183546 62 170 3.0 5.0 0.00 0.00 0.00 73 1011.8
20260903183041 62 228 2.0 2.0 0.00 0.00 0.00 73 1011.6
20260903182539 62 335 0.0 0.0 0.00 0.00 0.00 74 1011.7
20260903182037 62 167 3.0 3.0 0.00 0.00 0.00 74 1011.6
20260903181534 62 105 4.0 5.0 0.00 0.00 0.00 72 1011.5
20260903181034 61 118 1.0 2.0 0.00 0.00 0.00 74 1011.7
20260903180530 61 138 3.0 3.0 0.00 0.00 0.00 78 1011.6
20260903180029 61 260 1.0 2.0 0.00 0.00 0.00 76 1011.6
20260903175528 61 184 3.0 5.0 0.00 0.00 0.00 76 1011.5
20260903175028 61 195 3.0 3.0 0.00 0.00 0.00 75 1011.5
20260903174523 61 285 1.0 1.0 0.00 0.00 0.00 76 1011.4
20260903174018 61 199 4.0 5.0 0.00 0.00 0.00 75 1011.6
20260903173512 61 166 2.0 2.0 0.00 0.00 0.00 77 1011.5
20260903173009 61 194 2.0 3.0 0.00 0.00 0.00 75 1011.3
20260903172503 61 331 0.0 0.0 0.00 0.00 0.00 77 1011.3
20260903171959 60 68 3.0 3.0 0.00 0.00 0.00 75 1011.3
20260903171454 60 163 4.0 5.0 0.00 0.00 0.00 77 1011.3
20260903170948 60 352 1.0 1.0 0.00 0.00 0.00 77 1011.5
20260903170443 59 187 1.0 2.0 0.00 0.00 0.00 78 1011.3
20260903165943 59 167 3.0 3.0 0.00 0.00 0.00 78 1011.4
20260903165442 59 168 1.0 2.0 0.00 0.00 0.00 78 1011.4
20260903164937 59 142 1.0 2.0 0.00 0.00 0.00 77 1011.5
20260903164432 59 159 3.0 5.0 0.00 0.00 0.00 78 1011.2
20260903163931 59 295 1.0 1.0 0.00 0.00 0.00 77 1011.3
20260903163428 58 173 2.0 2.0 0.00 0.00 0.00 81 1011.4
20260903162924 57 319 1.0 1.0 0.00 0.00 0.00 83 1011.4
20260903162420 56 341 0.0 0.0 0.00 0.00 0.00 86 1011.4
20260903161915 56 288 1.0 1.0 0.00 0.00 0.00 86 1011.5
20260903161410 55 178 2.0 3.0 0.00 0.00 0.00 86 1011.5
20260903160906 55 309 0.0 0.0 0.00 0.00 0.00 89 1011.5
20260903160405 55 233 2.0 2.0 0.00 0.00 0.00 87 1011.4
20260903155904 55 318 0.0 1.0 0.00 0.00 0.00 87 1011.2
20260903155359 54 181 3.0 5.0 0.00 0.00 0.00 87 1011.3
20260903154855 54 211 2.0 2.0 0.00 0.00 0.00 87 1011.4
20260903154351 54 204 2.0 2.0 0.00 0.00 0.00 87 1011.1
20260903153851 54 278 0.0 1.0 0.00 0.00 0.00 88 1011.0
20260903153347 54 245 2.0 2.0 0.00 0.00 0.00 87 1011.1
20260903152843 54 195 1.0 2.0 0.00 0.00 0.00 87 1011.3
20260903152338 54 200 3.0 3.0 0.00 0.00 0.00 87 1011.2
20260903151833 53 3 1.0 1.0 0.00 0.00 0.00 87 1011.0
20260903151329 53 176 3.0 3.0 0.00 0.00 0.00 88 1011.2
20260903150828 53 143 2.0 2.0 0.00 0.00 0.00 88 1011.1
20260903150323 53 278 1.0 1.0 0.00 0.00 0.00 88 1011.0
20260903145818 53 261 1.0 1.0 0.00 0.00 0.00 89 1010.8
20260903145313 53 319 0.0 0.0 0.00 0.00 0.00 88 1011.0
20260903144813 53 244 2.0 2.0 0.00 0.00 0.00 87 1011.1
20260903144308 53 225 2.0 2.0 0.00 0.00 0.00 88 1011.0
20260903143803 52 53 1.0 1.0 0.00 0.00 0.00 88 1011.0
20260903143300 52 218 2.0 2.0 0.00 0.00 0.00 90 1010.6
20260903142755 52 323 0.0 0.0 0.00 0.00 0.00 90 1010.6
20260903142251 52 355 0.0 0.0 0.00 0.00 0.00 90 1010.6
20260903141747 51 290 0.0 0.0 0.00 0.00 0.00 90 1010.7
20260903141242 51 3 0.0 1.0 0.00 0.00 0.00 91 1010.7
20260903140737 51 345 0.0 0.0 0.00 0.00 0.00 91 1010.7
20260903140232 50 319 0.0 0.0 0.00 0.00 0.00 92 1010.5
20260903135728 50 289 1.0 1.0 0.00 0.00 0.00 94 1010.8
20260903135223 50 336 0.0 0.0 0.00 0.00 0.00 95 1010.4
20260903134721 50 346 0.0 0.0 0.00 0.00 0.00 95 1010.3
20260903134218 50 351 0.0 0.0 0.00 0.00 0.00 95 1010.5
20260903133715 50 343 2.0 2.0 0.00 0.00 0.00 94 1010.3
20260903133212 49 348 0.0 0.0 0.00 0.00 0.00 95 1010.3
20260903132711 50 210 2.0 2.0 0.00 0.00 0.00 93 1010.2
20260903132206 50 357 0.0 0.0 0.00 0.00 0.00 94 1010.3
20260903131701 50 219 1.0 2.0 0.00 0.00 0.00 94 1010.2
20260903131201 50 344 0.0 0.0 0.00 0.00 0.00 93 1010.1
20260903130656 50 314 0.0 0.0 0.00 0.00 0.00 93 1010.1
20260903130150 50 69 1.0 1.0 0.00 0.00 0.00 95 1010.0
20260903125648 50 288 1.0 1.0 0.00 0.00 0.00 96 1010.1
20260903125144 50 336 0.0 0.0 0.00 0.00 0.00 95 1010.0
20260903124643 50 349 1.0 1.0 0.00 0.00 0.00 95 1010.0
20260903124137 50 344 0.0 0.0 0.00 0.00 0.00 94 1009.8
20260903123631 50 322 0.0 0.0 0.00 0.00 0.00 93 1009.8
20260903123131 50 323 0.0 0.0 0.00 0.00 0.00 92 1009.9
20260903122631 50 318 0.0 0.0 0.00 0.00 0.00 92 1010.0
20260903122130 50 3 0.0 0.0 0.00 0.00 0.00 93 1009.8
20260903121629 50 271 0.0 0.0 0.00 0.00 0.00 93 1009.6
20260903121126 51 216 1.0 2.0 0.00 0.00 0.00 92 1009.5
20260903120624 51 330 0.0 0.0 0.00 0.00 0.00 92 1009.8
20260903120119 51 294 0.0 0.0 0.00 0.00 0.00 92 1009.6
20260903115617 51 329 0.0 0.0 0.00 0.00 0.00 91 1009.5
20260903115113 52 193 2.0 2.0 0.00 0.00 0.00 90 1009.5
20260903114608 52 207 2.0 3.0 0.00 0.00 0.00 90 1009.6
20260903114103 52 235 0.0 0.0 0.00 0.00 0.00 88 1009.5
20260903113559 53 229 1.0 2.0 0.00 0.00 0.00 86 1009.4
20260903113055 54 199 2.0 2.0 0.00 0.00 0.00 84 1009.5